Regional Weather Roundup
Issued by NWS

Home | Current Version | Previous Version | Text Only | Print | Product List | Glossary Off
Versions: 1 2 3 4 5 6 7 8 9 10 11 12 13 14 15 16 17 18 19 20 21 22 23 24 25 26 27 28 29 30 31 32 33 34 35 36 37 38 39 40 41 42 43 44 45 46 47 48 49 50

000
ASUS43 KMKX 290121
RWRWI

WISCONSIN REGIONAL WEATHER ROUNDUP
NATIONAL WEATHER SERVICE MILWAUKEE/SULLIVAN WI
800 PM CDT SUN AUG 28 2016

NOTE: "FAIR" INDICATES FEW OR NO CLOUDS BELOW 12,000 FEET WITH NO
SIGNIFICANT WEATHER AND/OR OBSTRUCTIONS TO VISIBILITY.

WIZ001-002-006>008-014>016-023>028-290200-
NORTHWEST WISCONSIN

CITY           SKY/WX    TMP DP  RH WIND       PRES   REMARKS
SUPERIOR ARPT  PTCLDY    65  63  94 E6        30.13F
ASHLAND        CLEAR     66  63  90 NE3       30.17R
HAYWARD        PTCLDY    71  65  81 CALM      30.17R
SIREN          CLEAR     73  66  79 SE5       30.14R
CUMBERLAND     CLEAR     70  63  78 SE5       30.16R
RICE LAKE      CLEAR     71  65  82 E3        30.18R
CHETEK         NOT AVBL
LADYSMITH      CLEAR     72  65  80 CALM      30.20R
EAU CLAIRE     CLEAR     73  66  78 SE5       30.15R
MENOMONIE      CLEAR     71  67  87 SE5       30.15S
NEW RICHMOND   CLEAR     73  69  88 SE5       30.14R
OSCEOLA        CLEAR     74  73  97 SE7       30.15R
$$

WIZ003>005-009-010-017-018-290200-
NORTH CENTRAL WISCONSIN

CITY           SKY/WX    TMP DP  RH WIND       PRES   REMARKS
MANITOWISH WTR NOT AVBL
ARBOR VITAE    CLEAR     71  67  85 CALM      30.21R
WOODRUFF       CLEAR     71  67  85 CALM      30.21R
RHINELANDER    CLEAR     67  64  90 CALM      30.22R
EAGLE RIVER    CLEAR     65  64  94 CALM      30.21R
LAND O LAKES   CLEAR     62  60  93 CALM      30.22S
PHILLIPS       CLEAR     66  64  93 CALM      30.20R
TOMAHAWK       CLEAR     65  61  87 CALM      30.22R
MEDFORD        CLEAR     69  66  92 SE3       30.20S
MERRILL        CLEAR     69  65  86 CALM      30.21R
$$

WIZ029-030-035-036-043>047-290200-
CENTRAL WISCONSIN

CITY           SKY/WX    TMP DP  RH WIND       PRES   REMARKS
WAUSAU         CLEAR     72  63  73 CALM      30.19R
MOSINEE        CLEAR     70  66  88 CALM      30.21R
MARSHFIELD     CLEAR     72  64  76 SE5       30.19R
STEVENS POINT  PTCLDY    70  64  82 CALM      30.21R
WAUPACA        CLEAR     73  69  89 CALM      30.20R
WAUTOMA        NOT AVBL
WISC RAPIDS      N/A     70  69  97 CALM      30.21R
CAMP DOUGLAS   CLEAR     70  67  90 SE2       30.18S
$$

WIZ011>013-019>022-031-037>040-048>050-290200-
NORTHEAST WISCONSIN

CITY           SKY/WX    TMP DP  RH WIND       PRES   REMARKS
ANTIGO         CLEAR     67  64  87 CALM      30.22R
SHAWANO        CLEAR     71  66  84 CALM      30.20R
OCONTO         NOT AVBL
STURGEON BAY   CLEAR     66  62  87 SE5       30.22R
GREEN BAY      CLEAR     69  67  93 E7        30.20R
MANITOWOC      CLOUDY    66  63  88 CALM      30.22R FOG
APPLETON       PTCLDY    72  63  73 S5        30.19R
CLINTONVILLE   CLEAR     68  64  88 CALM      30.20R
OSHKOSH        CLEAR     69  65  86 CALM      30.20R
$$

WIZ032>034-041-042-053>061-290200-
SOUTHWEST WISCONSIN

CITY           SKY/WX    TMP DP  RH WIND       PRES   REMARKS
LA CROSSE      PTCLDY    77  70  79 SE7       30.15R
SPARTA         CLEAR     72  68  88 CALM      30.18S
VIROQUA        CLEAR     71  69  95 SE5       30.19S
BOSCOBEL       CLEAR     76  72  87 CALM      30.17R
PRAIRIE DU CHI CLOUDY    77  71  80 SE3       30.14S
PLATTEVILLE    MOCLDY    77  72  84 E5        30.18S
$$

WIZ056-057-062-063-064-067-068-290200-
SOUTH CENTRAL WISCONSIN

CITY           SKY/WX    TMP DP  RH WIND       PRES   REMARKS
REEDSBURG      NOT AVBL
BARABOO/DELLS  CLEAR     69  66  89 SE3       30.19R
LONE ROCK      CLEAR     73  69  87 E5        30.18R
MINERAL POINT  PTCLDY    77  72  83 CALM      30.19S
MADISON        CLOUDY    73  68  84 NE5       30.18R
MIDDLETON      CLOUDY    72  71  97 CALM      30.20R
WATERTOWN      CLOUDY    73  71  93 E5        30.18S
MONROE         CLOUDY    77  70  78 CALM      30.19R
JANESVILLE     MOCLDY    79  73  83 SE6       30.17R HX  82
$$

WIZ051-052-058>065-066-070>072-290200-
SOUTHEAST WISCONSIN

CITY           SKY/WX    TMP DP  RH WIND       PRES   REMARKS
MILWAUKEE      PTCLDY    71  66  84 SE5       30.20R
WAUKESHA       CLEAR     70  64  83 E6        30.21R
MILWAUKEE/TIMM CLEAR     72  63  73 CALM      30.21R
RACINE         PTCLDY    71  67  87 E3        30.21S
BURLINGTON     PTCLDY    69  67  91 SE6       30.20R
KENOSHA        PTCLDY    69  67  93 NE5       30.20S
FOND DU LAC    CLEAR     70  66  87 SE8       30.20R
SHEBOYGAN      CLEAR     66  63  90 CALM      30.21R
WEST BEND      CLEAR     68  63  83 CALM      30.21R
JUNEAU         CLEAR     71  67  89 CALM      30.20S FOG
$$

LSZ147-162-290200-
LAKE SUPERIOR

STATION/POSITION TIME  TEMP    WIND        PRES    WAVE
                       AIR SEA DIR/SP/G            HT/PER
                 (UTC) (F)     (DEG/KT/KT) (MB)    (FT/S)
W MID LAKE BUOY  0050   66 68   90/  8/ 10 1021.4R   0
DEVILS ISLAND    0100   66     100/ 12/ 13 1021.3R
PORT WING        0000   68      30/  9/ 12 1020.7S
SAXON HARBOR     0000   71      40/  6/  8 1021.0R
$$

LMZ867-665-643>646-290200-
LAKE MICHIGAN

STATION/POSITION TIME  TEMP    WIND        PRES    WAVE
                       AIR SEA DIR/SP/G            HT/PER
                 (UTC) (F)     (DEG/KT/KT) (MB)    (FT/S)
CHAMBERS ISLAND  0000   72     140/  2/  4 1022.0S
S GREEN BAY BUOY 0100   71 73  150/ 12/ 14 1022.2
N MID LAKE BUOY  0050   71 72  190/  4/  4 1022.5R   0
NORTHPORT PIER   0000   71     170/  4/  7 1022.0F
KEWAUNEE LAKESHO 0000   65     180/  4/  6 1022.3S
SHEBOYGAN LAKESH 0100   69     210/  2/  2 1022.4R
PORT WASHINGTON  0000   71      30/  3/  4 1023.0
ATWATER BUOY     0100   68      10/  4/  6   N/A
MILWAUKEE LAKESH 0110   69      CALM  /  1   N/A
S MID LAKE BUOY  0050   73 75   50/  8/  8 1021.5R   1/ 4
KENOSHA   LAKESH 0100   70      40/  3/  3 1021.7R
$$

TC  - TEMPERATURE IN CELSIUS
VSB - VISIBILITY IN STATUTE MILES
WCI - WIND CHILL INDEX
HX  - HEAT INDEX





USA.gov is the U.S. government's official web portal to all federal, state and local government web resources and services.